Regional Weather Roundup
Issued by NWS Little Rock, AR

Home | Current Version | Previous Version | Graphics & Text | Print | Product List | Glossary On
Versions: 1 2 3 4 5 6 7 8 9 10 11 12 13 14 15 16 17 18 19 20 21 22 23 24 25 26 27 28 29 30 31 32 33 34 35 36 37 38 39 40 41 42 43 44 45 46 47 48 49 50
036
ASUS44 KLZK 120612
RWRLZK

WEATHER ROUNDUP FOR ARKANSAS
NATIONAL WEATHER SERVICE LITTLE ROCK AR
1200 AM CST TUE DEC 12 2017

NOTE: "FAIR" INDICATES FEW OR NO CLOUDS BELOW 12,000 FEET WITH NO
SIGNIFICANT WEATHER AND/OR OBSTRUCTIONS TO VISIBILITY.

ARZ001-003-010-029-120700-
NORTHWEST ARKANSAS

CITY           SKY/WX    TMP DP  RH WIND       PRES   REMARKS
FAYETTEVILLE   CLEAR     44  30  57 NW16G23   30.19R
6HR MIN TEMP:  44; 6HR MAX TEMP:  56;

FORT SMITH     PTCLDY    52  28  39 N23G33    30.19R
6HR MIN TEMP:  52; 6HR MAX TEMP:  64;

HARRISON       MOCLDY    45  29  53 NW18G29   30.12R
6HR MIN TEMP:  45; 6HR MAX TEMP:  56;

BENTONVILLE    CLEAR     43  30  60 NW12G20   30.21R
6HR MIN TEMP:  43; 6HR MAX TEMP:  55;

ROGERS         MOCLDY    44  30  57 NW15G24   30.19R
6HR MIN TEMP:  43; 6HR MAX TEMP:  55;

SILOAM SPGS    CLEAR     43  30  60 NW18G26   30.22R
6HR MIN TEMP:  43; 6HR MAX TEMP:  55;

HIGHFILL       CLEAR     43  30  60 NW16G23   30.20R
6HR MIN TEMP:  43; 6HR MAX TEMP:  55; 6HR PCP: TRACE;

$$

ARZ004-005-016-120700-
NORTH CENTRAL ARKANSAS

CITY           SKY/WX    TMP DP  RH WIND       PRES   REMARKS
BATESVILLE     CLOUDY    52  28  39 NW10G18   30.07R
6HR MIN TEMP:  52; 6HR MAX TEMP:  63;

FLIPPIN        CLEAR     48  30  49 NW13G22   30.11R
6HR MIN TEMP:  48; 6HR MAX TEMP:  58;

MTN HOME       PTCLDY    47  30  51 N10G24    30.09R
6HR MIN TEMP:  47; 6HR MAX TEMP:  56;

$$

ARZ040-041-120700-
WEST CENTRAL ARKANSAS

CITY           SKY/WX    TMP DP  RH WIND       PRES   REMARKS
MENA           CLEAR     54  27  35 NW15G21   30.16R
MOUNT IDA      PTCLDY    54  23  30 NW9G18    30.10R
6HR MIN TEMP:  53; 6HR MAX TEMP:  64;

$$

ARZ009-017-025-026-028-120700-
NORTHEAST ARKANSAS

CITY           SKY/WX    TMP DP  RH WIND       PRES   REMARKS
JONESBORO      CLOUDY    52  31  44 NW10      30.03R
6HR MIN TEMP:  52; 6HR MAX TEMP:  63;

NEWPORT        CLOUDY    51  29  42 NW18      30.06R
6HR MIN TEMP:  51; 6HR MAX TEMP:  60;

WALNUT RIDGE   MOCLDY    45  30  55 NW10      30.05R
6HR MIN TEMP:  43; 6HR MAX TEMP:  59;

BLYTHEVILLE    CLOUDY    47  32  56 NW10      30.01S
6HR MIN TEMP:  47; 6HR MAX TEMP:  56;

$$

ARZ022-023-033-042-044-120700-
CENTRAL ARKANSAS

CITY           SKY/WX    TMP DP  RH WIND       PRES   REMARKS
LITTLE ROCK    CLOUDY    53  23  31 NW8       30.08R
6HR MIN TEMP:  51; 6HR MAX TEMP:  62;

N LITTLE ROCK    N/A     54  28  37 N9G20     30.10R
6HR MIN TEMP:  54; 6HR MAX TEMP:  63;

JACKSONVILLE   MOCLDY    55  27  34 NW14G23   30.07R
6HR MIN TEMP:  46; 6HR MAX TEMP:  61;

SEARCY         CLOUDY    54  27  35 NW8       30.07R
6HR MIN TEMP:  54; 6HR MAX TEMP:  63;

HOT SPRINGS    CLOUDY    57  22  25 NW10G21   30.09R
6HR MIN TEMP:  53; 6HR MAX TEMP:  66;

RUSSELLVILLE   PTCLDY    53  27  36 NW10      30.11R
6HR MIN TEMP:  53; 6HR MAX TEMP:  64;

CLINTON        MOCLDY    52  27  37 NW5       30.10R
$$

ARZ036-120700-
EAST ARKANSAS

CITY           SKY/WX    TMP DP  RH WIND       PRES   REMARKS
WEST MEMPHIS   MOCLDY    48  31  51 NW5       30.01R
6HR MIN TEMP:  45; 6HR MAX TEMP:  60;

$$

ARZ050-053-066-070-073-120700-
SOUTHWEST ARKANSAS

CITY           SKY/WX    TMP DP  RH WIND       PRES   REMARKS
ARKADELPHIA    FAIR      56  22  26 NW8       30.10R
6HR MIN TEMP:  42; 6HR MAX TEMP:  59;

CAMDEN         CLEAR     54  19  26 NW6       30.08R
TEXARKANA      CLEAR     52  21  29 NW7       30.13R
6HR MIN TEMP:  52; 6HR MAX TEMP:  62;

EL DORADO      CLEAR     49  28  44 W5        30.09R
6HR MIN TEMP:  49; 6HR MAX TEMP:  58;

DE QUEEN       CLEAR     57  22  25 N12G22    30.13R
6HR MIN TEMP:  40; 6HR MAX TEMP:  61;

$$

ARZ056-057-069-120700-
SOUTHEAST ARKANSAS

CITY           SKY/WX    TMP DP  RH WIND       PRES   REMARKS
PINE BLUFF     CLEAR     52  23  32 NW7       30.06R
6HR MIN TEMP:  51; 6HR MAX TEMP:  61;

STUTTGART      MOCLDY    53  27  36 NW14      30.05R
6HR MIN TEMP:  47; 6HR MAX TEMP:  57;

MONTICELLO     CLEAR     51  26  37 NW3       30.06R
6HR MIN TEMP:  51; 6HR MAX TEMP:  63;


$$






USA.gov is the U.S. government's official web portal to all federal, state and local government web resources and services.